Location: Chochol
(49.7771°N, 14.9780°E)
Time: 07:47:02
(UTC+00:00)

ERS-1 Rocket - Pass Details

Date: 09 April 2020
Orbit: 754 x 757 km, 98.5° (Epoch: 02 June)

Event Time Altitude Azimuth Distance (km) Brightness Sun altitude
Exits shadow 20:47:02 56° 215° (SW) 903 3.2 -25.2°
Maximum altitude 20:47:47 63° 258° (WSW) 842 3.2 -25.3°
Drops below altitude 10° 20:52:48 10° 340° (NNW) 2,293 6.4 -25.8°
Sets 20:55:09 0° 344° (NNW) 3,222 7.4 -26.0°
